[[{"header":{"parameterUnit":"m.s-1","parameterCategory":1,"la1":30.2991,"la2":30.254,"lo1":-89.0895,"lo2":-89.0444,"dy":0.0017,"dx":0.0017,"nx":28,"ny":28,"refTime":"2024-10-07T03:00:00:Z","depth":0,"parameterNumber":2,"parameterNumberName":"U-component_of_WINDS"},"data":[0,0,0,0,0,0,0,0,0,0,0,0,0,0,0,0,0,0,0,0,0,0,0,0,0,0,0,0,0,0,0,0,0,0,0,0,0,0,0,0,0,0,0,0,0,0,0,0,0,0,0,0,0,0,0,0,0,0,-2.897,-2.897,0,-2.901,-2.9011,-2.9011,-2.8925,-2.8922,-2.8919,-2.8917,-2.896,-2.8964,-2.8968,0,0,0,0,0,0,0,0,0,0,0,0,0,-2.882,-2.8823,-2.897,-2.897,-2.8971,-2.901,-2.9011,-2.9011,-2.8925,-2.8922,-2.8919,-2.8916,-2.8959,-2.8964,-2.8968,0,0,0,0,0,0,0,0,0,0,0,0,0,-2.8875,-2.8824,-2.897,-2.8933,-2.893,-2.901,-2.9011,-2.9011,-2.8926,-2.8922,-2.8918,-2.8914,-2.8958,-2.8963,-2.8969,-2.9087,0,0,-2.8986,-2.8988,0,0,0,0,0,0,0,0,-2.8872,-2.8881,-2.8938,-2.8935,-2.8932,-2.8958,-2.8973,-2.9037,-2.8927,-2.8928,-2.8917,-2.8912,-2.8963,-2.8968,-2.8985,-2.9089,-2.9091,-2.8987,-2.899,-2.8992,-2.8994,0,0,0,0,0,0,0,-2.8868,-2.8878,-2.8986,-2.8939,-2.8935,-2.8914,-2.8918,-2.8985,-2.8969,-2.8927,-2.8921,-2.8927,-2.8961,-2.898,-2.8985,-2.9092,-2.8986,-2.8991,-2.8995,-2.8997,-2.9295,-2.93,0,0,0,0,0,0,-2.8869,-2.8876,-2.8984,-2.8987,-2.8891,-2.8921,-2.8924,-2.8954,-2.8967,-2.8965,-2.8931,-2.8923,-2.8972,-2.8979,-2.8987,-2.9127,-2.8992,-2.8998,-2.9001,-2.9291,-2.9296,-2.9301,0,0,0,0,0,0,-2.8866,-2.8879,-2.8983,-2.893,-2.8941,-2.8928,-2.8962,-2.8957,-2.8976,-2.897,-2.8967,-2.8953,-2.8969,-2.8979,-2.9063,-2.9127,-2.9,-2.9005,-2.9286,-2.9293,-2.9299,-2.9408,0,0,0,0,0,0,-2.8862,-2.8879,-2.8924,-2.8931,-2.8944,-2.9059,-2.8966,-2.8961,-2.8986,-2.8976,-2.899,-2.8988,-2.8967,-2.9055,-2.9068,-2.9133,-2.901,-2.928,-2.9289,-2.9297,-2.9399,-2.9418,-2.9434,0,0,0,0,0,-2.8857,-2.8953,-2.8926,-2.894,-2.9,-2.9062,-2.907,-2.9042,-2.8991,-2.9036,-2.9032,-2.8988,-2.9117,-2.9064,-2.9079,-2.9146,-2.9276,-2.9286,-2.9296,-2.9391,-2.9414,-2.9434,0,0,0,0,0,0,-2.8955,-2.8954,-2.8924,-2.9026,-2.9045,-2.9048,-2.9104,-2.9068,-2.9102,-2.9092,-2.9057,-2.9061,-2.9152,-2.9157,-2.9097,-2.9261,-2.9188,-2.9202,-2.9255,-2.9277,-2.9295,-2.9293,-2.9014,0,0,0,0,0,-2.8988,-2.9038,-2.9034,-2.9125,-2.9135,-2.9118,-2.9144,-2.9121,-2.914,-2.9148,-2.915,-2.917,-2.9215,-2.9246,-2.9287,-2.9398,-2.9401,-2.9451,-2.9469,-2.9484,-2.9497,-2.9556,-2.9579,-2.9335,-2.9335,-2.9335,0,0,-2.9058,-2.9063,-2.9097,-2.9144,-2.9156,-2.921,-2.9126,-2.9186,-2.9225,-2.9157,-2.9237,-2.9239,-2.9259,-2.9357,-2.9401,-2.9364,-2.9564,-2.9497,-2.9508,-2.9513,-2.9569,-2.9592,-2.9613,-2.9342,-2.9341,-2.934,0,0,-2.9212,-2.9221,-2.9297,-2.931,-2.9329,-2.9317,-2.9335,-2.9343,-2.9342,-2.9421,-2.9371,-2.9417,-2.9496,-2.9512,-2.9531,-2.969,-2.9651,-2.9704,-2.9798,-2.9857,-2.9876,-2.9893,-2.9951,-2.9972,-2.9717,-2.9717,-2.9717,0,-2.9297,-2.9375,-2.9341,-2.9405,-2.9427,-2.9366,-2.9443,-2.9458,-2.949,-2.9507,-2.9465,-2.9562,-2.9571,-2.9673,-2.9711,-2.9728,-2.9749,-2.9704,-2.9876,-2.9892,-2.9908,-2.9963,-2.9984,-2.9724,-2.9723,-2.9722,-2.9722,0,-2.9478,-2.9533,-2.9592,-2.9624,-2.9652,-2.9723,-2.97,-2.9733,-2.9707,-2.9699,-2.978,-2.9789,-2.9831,-2.9852,-2.9828,-2.9951,-2.9928,-2.9881,-2.9808,-2.9938,-2.9989,-3.001,-2.9733,-2.9731,-2.9729,-2.9727,0,0,-2.9699,-2.9709,-2.9732,-2.9745,-2.976,-2.9802,-2.9869,-2.9909,-2.9939,-2.9962,-3.0018,-3.0085,-3.0042,-3.0063,-3.0039,-3.0091,-3.0218,-3.0038,-3.0038,-3.0072,-3.0355,-3.0391,-3.0416,-3.019,-3.0194,-3.0197,-3.0354,0,-2.9853,-2.9968,-2.9939,-3.0053,-3.0104,-3.0045,-3.0104,-3.012,-3.0114,-3.0156,-3.0149,-3.0198,-3.0136,-3.0149,-3.0196,-3.0192,-3.0274,-3.018,-3.0244,-3.0247,-3.0243,-3.0443,-3.0482,-3.0629,-3.0373,-3.0377,-3.0379,0,-3.0049,-3.0079,-3.0199,-3.0205,-3.0225,-3.0278,-3.0312,-3.0353,-3.037,-3.0361,-3.0385,-3.0351,-3.0417,-3.0341,-3.0433,-3.0369,-3.0393,-3.0395,-3.04,-3.0407,-3.0323,-3.0457,-3.0675,-3.0698,-3.041,-3.0407,-3.0405,0,-3.02,-3.027,-3.035,-3.0363,-3.0373,-3.0411,-3.0417,-3.0429,-3.0455,-3.0485,-3.0502,-3.0539,-3.056,-3.059,-3.0567,-3.0513,-3.0663,-3.0585,-3.066,-3.066,-3.0696,-3.0695,-3.0923,-3.0708,-3.0707,-3.0707,-3.0707,0,-3.0376,-3.0452,-3.0418,-3.0468,-3.0551,-3.0516,-3.06,-3.0599,-3.061,-3.0659,-3.061,-3.0657,-3.0623,-3.0667,-3.0649,-3.0729,-3.0738,-3.0735,-3.0729,-3.074,-3.0741,-3.0758,-3.0748,-3.0713,-3.0712,-3.071,-3.0709,0,-3.056,-3.054,-3.0624,-3.0626,-3.0628,-3.0689,-3.069,-3.0737,-3.0726,-3.0788,-3.0801,-3.0785,-3.0834,-3.0813,-3.0866,-3.0854,-3.0956,-3.0936,-3.0951,-3.0947,-3.1024,-3.1018,-3.1273,-3.1305,-3.1067,-3.1069,-3.1071,0,-3.0676,-3.0733,-3.0739,-3.0768,-3.0777,-3.0824,-3.085,-3.0817,-3.0846,-3.0869,-3.0913,-3.0958,-3.0992,-3.1074,-3.1068,-3.1108,-3.109,-3.1176,-3.1096,-3.1105,-3.1093,-3.1091,-3.1097,-3.1193,-3.1196,-3.1198,-3.12,0,-3.0883,-3.087,-3.0909,-3.0944,-3.0976,-3.1002,-3.1024,-3.1051,-3.1019,-3.1054,-3.1103,-3.113,-3.1183,-3.1229,-3.1264,-3.127,-3.1231,-3.1225,-3.1245,-3.1258,-3.1265,-3.1264,-3.0998,-3.122,-3.1218,-3.1217,-3.1216,-3.1215,-3.1038,-3.1086,-3.1098,-3.1143,-3.1155,-3.1177,-3.1221,-3.1214,-3.1255,-3.1295,-3.1273,-3.1331,-3.1345,-3.1388,-3.14,-3.1445,-3.1411,-3.144,-3.1447,-3.1455,-3.1466,-3.1256,-3.1451,-3.145,-3.145,-3.1449,-3.1449,0,-3.1245,-3.1249,-3.129,-3.1322,-3.1357,-3.1315,-3.1337,-3.1369,-3.1421,-3.1437,-3.1471,-3.1529,-3.1572,-3.1568,-3.1608,-3.1646,-3.1629,-3.1658,-3.1656,-3.1658,-3.1493,-3.1473,-3.1671,-3.1671,-3.1671,-3.1671,-3.167,-3.167,-3.1356,-3.1436,-3.1424,-3.1508,-3.1512,-3.1568,-3.1584,-3.1604,-3.1617,-3.1683,-3.1718,-3.1715,-3.1723,-3.1763,-3.1802,-3.1799,-3.1817,-3.1853,-3.1845,-3.1692,-3.167,-3.1649,-3.163,-3.1857,-3.1857,-3.2006,-3.2008,-3.2009]},{"header":{"parameterUnit":"m.s-1","parameterCategory":1,"la1":30.2991,"la2":30.254,"lo1":-89.0895,"lo2":-89.0444,"dy":0.0017,"dx":0.0017,"nx":28,"ny":28,"refTime":"2024-10-07T03:00:00:Z","depth":0,"parameterNumber":3,"parameterNumberName":"V-component_of_WINDS"},"data":[0,0,0,0,0,0,0,0,0,0,0,0,0,0,0,0,0,0,0,0,0,0,0,0,0,0,0,0,0,0,0,0,0,0,0,0,0,0,0,0,0,0,0,0,0,0,0,0,0,0,0,0,0,0,0,0,0,0,-4.4351,-4.4352,0,-4.4392,-4.4392,-4.4393,-4.4337,-4.4335,-4.4333,-4.4331,-4.437,-4.4373,-4.4376,0,0,0,0,0,0,0,0,0,0,0,0,0,-4.4222,-4.4224,-4.4351,-4.4352,-4.4352,-4.4392,-4.4392,-4.4393,-4.4337,-4.4335,-4.4332,-4.433,-4.4369,-4.4373,-4.4376,0,0,0,0,0,0,0,0,0,0,0,0,0,-4.4272,-4.4225,-4.4351,-4.4329,-4.4328,-4.4392,-4.4392,-4.4393,-4.4338,-4.4335,-4.4332,-4.4329,-4.4368,-4.4372,-4.4377,-4.4464,0,0,-4.439,-4.4392,0,0,0,0,0,0,0,0,-4.4269,-4.4276,-4.4332,-4.4331,-4.4329,-4.4356,-4.4361,-4.4417,-4.4338,-4.4334,-4.4331,-4.4327,-4.4368,-4.4372,-4.4386,-4.4466,-4.4467,-4.4391,-4.4393,-4.4395,-4.4396,0,0,0,0,0,0,0,-4.4265,-4.4274,-4.4367,-4.4333,-4.4331,-4.4316,-4.432,-4.4371,-4.4367,-4.4334,-4.433,-4.4336,-4.4367,-4.4382,-4.4387,-4.4468,-4.439,-4.4394,-4.4397,-4.4399,-4.4618,-4.4621,0,0,0,0,0,0,-4.4265,-4.4272,-4.4366,-4.4368,-4.4291,-4.4321,-4.4325,-4.435,-4.4366,-4.4366,-4.4338,-4.4333,-4.4376,-4.4382,-4.4388,-4.4489,-4.4395,-4.4399,-4.4402,-4.4614,-4.4618,-4.4622,0,0,0,0,0,0,-4.4262,-4.4274,-4.4364,-4.4319,-4.4329,-4.4326,-4.4355,-4.4353,-4.4368,-4.437,-4.4368,-4.4355,-4.4374,-4.4382,-4.4445,-4.449,-4.4401,-4.4405,-4.4611,-4.4616,-4.462,-4.4693,0,0,0,0,0,0,-4.4259,-4.4273,-4.4307,-4.432,-4.4332,-4.4422,-4.4358,-4.4356,-4.4376,-4.437,-4.4385,-4.4385,-4.4372,-4.4439,-4.4449,-4.4494,-4.4408,-4.4607,-4.4613,-4.4619,-4.4687,-4.47,-4.4711,0,0,0,0,0,-4.4255,-4.4327,-4.431,-4.4321,-4.4375,-4.4425,-4.4431,-4.4416,-4.438,-4.4414,-4.4414,-4.4384,-4.4483,-4.4446,-4.4457,-4.4504,-4.4604,-4.4611,-4.4618,-4.4681,-4.4697,-4.4711,0,0,0,0,0,0,-4.4319,-4.4328,-4.4309,-4.4388,-4.4406,-4.4415,-4.4457,-4.4434,-4.4462,-4.4455,-4.4434,-4.4438,-4.4505,-4.4511,-4.4469,-4.4588,-4.4537,-4.4547,-4.4582,-4.4597,-4.4609,-4.4606,-4.4412,0,0,0,0,0,-4.4342,-4.4383,-4.4388,-4.4457,-4.4467,-4.4461,-4.4482,-4.4468,-4.4486,-4.4493,-4.4498,-4.4516,-4.455,-4.4574,-4.4606,-4.4687,-4.4689,-4.4725,-4.4737,-4.4747,-4.4756,-4.4797,-4.4813,-4.4645,-4.4645,-4.4645,0,0,-4.4391,-4.4401,-4.4428,-4.447,-4.4483,-4.4524,-4.4467,-4.4514,-4.4544,-4.45,-4.456,-4.4564,-4.4582,-4.4654,-4.4686,-4.4661,-4.4802,-4.4756,-4.4764,-4.4768,-4.4806,-4.4822,-4.4836,-4.465,-4.4649,-4.4649,0,0,-4.4501,-4.4513,-4.4571,-4.4584,-4.4604,-4.4598,-4.4612,-4.4625,-4.4626,-4.4685,-4.4653,-4.4687,-4.4748,-4.4762,-4.4777,-4.4889,-4.4862,-4.49,-4.4964,-4.5004,-4.5018,-4.5029,-4.5068,-4.5082,-4.4909,-4.4909,-4.4909,0,-4.4559,-4.4621,-4.4603,-4.4652,-4.467,-4.4632,-4.4689,-4.4703,-4.4732,-4.4745,-4.4716,-4.4791,-4.48,-4.4874,-4.4901,-4.4915,-4.4929,-4.4898,-4.5017,-4.5029,-4.5039,-4.5076,-4.5091,-4.4913,-4.4913,-4.4912,-4.4912,0,-4.469,-4.4733,-4.4777,-4.4806,-4.483,-4.4882,-4.4871,-4.4897,-4.4881,-4.4878,-4.4938,-4.4948,-4.4981,-4.4997,-4.4982,-4.5068,-4.5052,-4.5021,-4.497,-4.506,-4.5094,-4.5108,-4.492,-4.4918,-4.4917,-4.4916,0,0,-4.4843,-4.486,-4.4876,-4.4888,-4.4906,-4.4938,-4.4988,-4.502,-4.5042,-4.5062,-4.5103,-4.5154,-4.5125,-4.5142,-4.5128,-4.5163,-4.525,-4.5127,-4.5127,-4.5149,-4.5343,-4.5366,-4.5383,-4.5232,-4.5235,-4.5237,-4.5341,0,-4.4952,-4.5039,-4.5023,-4.5107,-4.5146,-4.5109,-4.5152,-4.5167,-4.5165,-4.5197,-4.5194,-4.5231,-4.519,-4.52,-4.5233,-4.5232,-4.5288,-4.5224,-4.5268,-4.527,-4.5264,-4.5401,-4.5426,-4.5524,-4.5355,-4.5357,-4.5359,0,-4.5091,-4.5116,-4.5204,-4.5213,-4.5229,-4.5268,-4.5295,-4.5326,-4.5341,-4.5337,-4.5355,-4.5334,-4.5382,-4.533,-4.5395,-4.5352,-4.5368,-4.537,-4.5374,-4.5377,-4.532,-4.5407,-4.5555,-4.557,-4.538,-4.5378,-4.5377,0,-4.5192,-4.5248,-4.5307,-4.5318,-4.5332,-4.5359,-4.5366,-4.5378,-4.5398,-4.5421,-4.5433,-4.5462,-4.5477,-4.5499,-4.5485,-4.5449,-4.5552,-4.5499,-4.5549,-4.5549,-4.5572,-4.5571,-4.5725,-4.5584,-4.5584,-4.5584,-4.5583,0,-4.5315,-4.537,-4.5353,-4.5389,-4.5449,-4.5429,-4.5489,-4.5491,-4.5501,-4.5536,-4.5506,-4.554,-4.552,-4.5551,-4.554,-4.5595,-4.5602,-4.5599,-4.5596,-4.5602,-4.5602,-4.5612,-4.5605,-4.5587,-4.5587,-4.5586,-4.5585,0,-4.5438,-4.5429,-4.5491,-4.5498,-4.5501,-4.5544,-4.5549,-4.5582,-4.5577,-4.5622,-4.5631,-4.5624,-4.5659,-4.5647,-4.5685,-4.5678,-4.5747,-4.5735,-4.5742,-4.5739,-4.5788,-4.5783,-4.5954,-4.5974,-4.5821,-4.5823,-4.5824,0,-4.5517,-4.5558,-4.5569,-4.559,-4.5599,-4.5634,-4.5653,-4.5635,-4.5656,-4.5675,-4.5706,-4.5738,-4.5763,-4.5821,-4.5818,-4.5847,-4.5834,-4.5892,-4.5838,-4.5843,-4.5834,-4.5832,-4.5835,-4.5903,-4.5904,-4.5906,-4.5907,0,-4.5657,-4.565,-4.568,-4.5708,-4.5731,-4.5752,-4.577,-4.5789,-4.5772,-4.5797,-4.5832,-4.5852,-4.589,-4.5922,-4.5947,-4.5952,-4.5927,-4.5924,-4.5936,-4.5943,-4.5945,-4.5943,-4.577,-4.592,-4.5919,-4.5918,-4.5917,-4.5917,-4.576,-4.5794,-4.5807,-4.584,-4.5851,-4.5868,-4.5899,-4.5898,-4.5927,-4.5957,-4.5944,-4.5984,-4.5996,-4.6027,-4.6036,-4.6066,-4.6044,-4.6063,-4.6067,-4.6072,-4.6078,-4.5941,-4.6071,-4.6071,-4.607,-4.607,-4.607,0,-4.5898,-4.5904,-4.5934,-4.596,-4.5986,-4.5959,-4.5977,-4.6,-4.6036,-4.6049,-4.6074,-4.6114,-4.6144,-4.6144,-4.6171,-4.6196,-4.6185,-4.6204,-4.6202,-4.6203,-4.6097,-4.6083,-4.6212,-4.6212,-4.6212,-4.6212,-4.6212,-4.6212,-4.5973,-4.6029,-4.6023,-4.6083,-4.6088,-4.6127,-4.6139,-4.6154,-4.6164,-4.621,-4.6235,-4.6235,-4.6242,-4.6269,-4.6296,-4.6294,-4.6306,-4.6329,-4.6323,-4.6225,-4.6211,-4.6197,-4.6183,-4.6332,-4.6332,-4.6426,-4.6427,-4.6428]}]]